GW0587 Weather Reports


Display with metric or nautical units.
time (UTC)temp
F
wind
direction
speed
MPH
gust
MPH
rain 1hr
in
rain 24hr
in
rain mn
in
humidity
%
barometer
mb
20260901084546 78 0 0.0 0.0 0.00 0.00 0.00 81 1018.1
20260901083052 78 0 0.0 0.0 0.00 0.00 0.00 81 1018.0
20260901081558 78 0 0.0 0.0 0.00 0.00 0.00 80 1018.0
20260901080048 79 0 0.0 0.0 0.00 0.00 0.00 80 1018.0
20260901074546 79 0 0.0 0.0 0.00 0.00 0.00 80 1018.0
20260901073050 79 0 0.0 0.0 0.00 0.00 0.00 79 1017.9
20260901071601 80 0 0.0 0.0 0.00 0.00 0.00 78 1017.9
20260901070048 80 0 0.0 0.0 0.00 0.00 0.00 78 1017.8
20260901064556 80 0 0.0 0.0 0.00 0.00 0.00 77 1017.8
20260901063052 80 0 0.0 0.0 0.00 0.00 0.00 77 1017.9
20260901061549 80 0 0.0 0.0 0.00 0.00 0.00 76 1018.0
20260901060048 80 0 0.0 0.0 0.00 0.00 0.00 76 1017.9
20260901054558 81 0 0.0 0.0 0.00 0.00 0.00 76 1018.0
20260901053118 81 0 0.0 0.0 0.00 0.00 0.00 76 1018.0
20260901051603 81 0 0.0 0.0 0.00 0.00 0.00 75 1018.0
20260901050048 81 0 0.0 0.0 0.00 0.00 0.00 75 1017.9
20260901044607 82 0 0.0 0.0 0.00 0.00 0.00 75 1017.8
20260901043052 82 0 0.0 0.0 0.00 0.00 0.00 74 1017.7
20260901041547 82 0 0.0 0.0 0.00 0.00 0.00 73 1017.7
20260901040106 82 0 0.0 0.0 0.00 0.00 0.00 73 1017.8
20260901034607 83 0 0.0 0.0 0.00 0.00 0.00 73 1017.6
20260901033049 83 0 0.0 0.0 0.00 0.00 0.00 72 1017.6
20260901031551 83 0 0.0 0.0 0.00 0.00 0.00 71 1017.7
20260901030051 84 0 0.0 0.0 0.00 0.00 0.00 71 1017.7
20260901024555 84 0 0.0 0.0 0.00 0.00 0.00 70 1017.6
20260901023104 84 0 0.0 0.0 0.00 0.00 0.00 69 1017.6
20260901021600 84 0 0.0 0.0 0.00 0.00 0.00 69 1017.3
20260901020057 85 0 0.0 0.0 0.00 0.00 0.00 67 1017.3
20260901014558 86 0 0.0 0.0 0.00 0.00 0.00 66 1017.0
20260901013058 87 0 0.0 0.0 0.00 0.00 0.00 65 1016.7
20260901011606 88 0 0.0 0.0 0.00 0.00 0.00 63 1016.8
20260901010054 89 0 0.0 0.0 0.00 0.00 0.00 60 1016.6
20260901004557 89 0 0.0 2.0 0.00 0.00 0.00 59 1016.5
20260901003058 89 0 0.0 0.0 0.00 0.00 0.00 61 1016.3
20260901001558 90 0 0.0 0.0 0.00 0.00 0.00 60 1016.3
20260901000058 92 0 0.0 0.0 0.00 0.00 0.00 58 1016.4
20260831234555 93 0 0.0 0.0 0.00 0.00 0.00 54 1016.4
20260831233048 94 0 0.0 1.0 0.00 0.00 0.00 52 1016.4
20260831231546 94 0 0.0 3.0 0.00 0.00 0.00 49 1016.6
20260831230108 95 42 2.0 4.0 0.00 0.00 0.00 48 1016.5
20260831224550 95 0 0.0 4.0 0.00 0.00 0.00 47 1016.7
20260831223052 95 0 0.0 3.0 0.00 0.00 0.00 48 1016.7
20260831221556 95 0 0.0 4.0 0.00 0.00 0.00 48 1016.9
20260831220105 95 0 0.0 0.0 0.00 0.00 0.00 48 1016.8
20260831214549 95 0 0.0 2.0 0.00 0.00 0.00 49 1016.9
20260831213046 95 0 0.0 6.0 0.00 0.00 0.00 48 1017.0
20260831211604 95 0 0.0 3.0 0.00 0.00 0.00 49 1017.3
20260831210052 95 115 1.0 3.0 0.00 0.00 0.00 48 1017.1
20260831204553 95 0 1.0 5.0 0.00 0.00 0.00 47 1017.3
20260831203047 96 88 1.0 4.0 0.00 0.00 0.00 47 1017.6
20260831201554 96 143 0.0 4.0 0.00 0.00 0.00 48 1017.6
20260831200056 97 286 0.0 4.0 0.00 0.00 0.00 46 1017.7
20260831194553 97 0 0.0 4.0 0.00 0.00 0.00 47 1017.8
20260831193057 97 296 2.0 6.0 0.00 0.00 0.00 46 1018.1
20260831191553 96 0 0.0 6.0 0.00 0.00 0.00 50 1018.3
20260831190106 95 0 0.0 3.0 0.00 0.00 0.00 49 1018.3
20260831184547 94 0 0.0 0.0 0.00 0.00 0.00 52 1018.5
20260831183043 93 0 1.0 3.0 0.00 0.00 0.00 53 1018.9
20260831181547 93 0 1.0 6.0 0.00 0.00 0.00 52 1019.3
20260831174553 95 290 2.0 6.0 0.00 0.00 0.00 53 1019.5
20260831173048 94 281 1.0 7.0 0.00 0.00 0.00 54 1019.6
20260831171558 93 160 0.0 4.0 0.00 0.00 0.00 55 1019.7
20260831170051 95 0 0.0 4.0 0.00 0.00 0.00 52 1019.9
20260831164625 94 0 0.0 3.0 0.00 0.00 0.00 55 1020.0
20260831163047 93 159 1.0 4.0 0.00 0.00 0.00 56 1020.1
20260831161558 93 289 1.0 5.0 0.00 0.00 0.00 56 1020.0
20260831160049 94 0 1.0 5.0 0.00 0.00 0.00 54 1020.1
20260831154618 93 198 0.0 5.0 0.00 0.00 0.00 56 1020.0
20260831153103 93 147 1.0 4.0 0.00 0.00 0.00 57 1020.1
20260831151557 92 0 1.0 5.0 0.00 0.00 0.00 60 1019.8
20260831150049 90 0 0.0 5.0 0.00 0.00 0.00 61 1020.0
20260831144559 90 286 0.0 3.0 0.00 0.00 0.00 63 1020.0
20260831143102 89 0 0.0 1.0 0.00 0.00 0.00 65 1019.8
20260831141615 87 0 0.0 2.0 0.00 0.00 0.00 67 1019.9
20260831140058 86 0 0.0 3.0 0.00 0.00 0.00 68 1019.9
20260831134605 85 0 0.0 1.0 0.00 0.00 0.00 71 1019.9
20260831133048 84 0 0.0 0.0 0.00 0.00 0.00 72 1019.9
20260831131641 82 0 0.0 1.0 0.00 0.00 0.00 74 1019.7
20260831130055 81 0 0.0 4.0 0.00 0.00 0.00 75 1019.6
20260831124547 80 0 0.0 4.0 0.00 0.00 0.00 78 1019.6
20260831123048 77 0 0.0 0.0 0.00 0.00 0.00 82 1019.4
20260831121553 75 0 0.0 0.0 0.00 0.00 0.00 85 1019.2
20260831120055 74 0 0.0 0.0 0.00 0.00 0.00 87 1019.1
20260831114548 74 0 0.0 0.0 0.00 0.00 0.00 86 1018.9
20260831113050 74 0 0.0 0.0 0.00 0.00 0.00 85 1018.8
20260831111605 74 0 0.0 0.0 0.00 0.00 0.00 85 1018.8
20260831110054 74 0 0.0 0.0 0.00 0.00 0.00 85 1018.6
20260831104556 75 0 0.0 0.0 0.00 0.00 0.00 84 1018.3
20260831103047 75 0 0.0 0.0 0.00 0.00 0.00 84 1018.3
20260831101554 75 0 0.0 0.0 0.00 0.00 0.00 84 1018.2
20260831094547 75 0 0.0 0.0 0.00 0.00 0.00 84 1018.0
20260831093058 75 0 0.0 0.0 0.00 0.00 0.00 83 1017.9
20260831091552 76 0 0.0 0.0 0.00 0.00 0.00 83 1018.0
20260831090052 76 0 0.0 0.0 0.00 0.00 0.00 82 1017.9